GLO1746 SBBR-SBGO

Flight info

Callsign GLO1746
Flight time 0h 21m
Altitude 14000
Route SIREM DCT GNV
Aircraft B737/M-SDFGIKLORWXY/LB1

Departure

Time 2026-04-28 03:44
Airport Presidente Juscelino Kubitschek International Airport (SBBR)

Arrival

Time 2026-04-28 04:05
Airport Santa Genoveva International Airport (SBGO)
Time Latitude Longitude Altitude Speed Heading
2026-04-28 03:34 -15.86709 -47.91844 3471 ft 0 kts 176°
2026-04-28 03:37 -15.86630 -47.91847 3470 ft 2 kts 191°
2026-04-28 03:37 -15.86619 -47.91843 3470 ft 2 kts 231°
2026-04-28 03:37 -15.86614 -47.91830 3469 ft 3 kts 259°
2026-04-28 03:38 -15.86611 -47.91804 3467 ft 4 kts 263°
2026-04-28 03:38 -15.86610 -47.91795 3467 ft 0 kts 263°
2026-04-28 03:40 -15.86612 -47.91823 3470 ft 10 kts 266°
2026-04-28 03:40 -15.86617 -47.91905 3470 ft 11 kts 266°
2026-04-28 03:40 -15.86623 -47.91985 3471 ft 11 kts 265°
2026-04-28 03:40 -15.86629 -47.92063 3471 ft 11 kts 265°
2026-04-28 03:41 -15.86632 -47.92140 3471 ft 10 kts 267°
2026-04-28 03:41 -15.86613 -47.92211 3470 ft 10 kts 294°
2026-04-28 03:41 -15.86584 -47.92277 3470 ft 10 kts 298°
2026-04-28 03:41 -15.86534 -47.92322 3468 ft 10 kts 341°
2026-04-28 03:42 -15.86474 -47.92302 3467 ft 10 kts 51°
2026-04-28 03:42 -15.86436 -47.92243 3466 ft 10 kts 56°
2026-04-28 03:42 -15.86398 -47.92187 3465 ft 9 kts 51°
2026-04-28 03:42 -15.86354 -47.92138 3465 ft 9 kts 39°
2026-04-28 03:43 -15.86315 -47.92090 3465 ft 9 kts 75°
2026-04-28 03:43 -15.86312 -47.92053 3465 ft 22 kts 86°
2026-04-28 03:43 -15.86282 -47.91572 3463 ft 108 kts 85°
2026-04-28 03:43 -15.86212 -47.90552 3494 ft 175 kts 85°
2026-04-28 03:44 -15.86128 -47.89183 4213 ft 188 kts 86°
2026-04-28 03:44 -15.86147 -47.87875 5402 ft 184 kts 107°
2026-04-28 03:44 -15.86964 -47.86753 5818 ft 216 kts 148°
2026-04-28 03:44 -15.88526 -47.86423 6134 ft 249 kts 188°
2026-04-28 03:45 -15.90081 -47.87262 6859 ft 261 kts 225°
2026-04-28 03:45 -15.91147 -47.88801 7677 ft 264 kts 236°
2026-04-28 03:45 -15.91797 -47.89875 8216 ft 266 kts 236°
2026-04-28 03:45 -15.92826 -47.91505 8984 ft 275 kts 234°
2026-04-28 03:46 -15.93974 -47.93189 9638 ft 290 kts 232°
2026-04-28 03:46 -15.95192 -47.94858 10518 ft 296 kts 231°
2026-04-28 03:46 -15.97002 -47.97195 11163 ft 322 kts 229°
2026-04-28 03:46 -15.98468 -47.99003 11910 ft 329 kts 229°
2026-04-28 03:47 -15.99944 -48.00780 12921 ft 327 kts 229°
2026-04-28 03:47 -16.01445 -48.02559 13774 ft 329 kts 229°
2026-04-28 03:47 -16.02962 -48.04336 14069 ft 327 kts 229°
2026-04-28 03:47 -16.04494 -48.06119 14109 ft 332 kts 229°
2026-04-28 03:48 -16.06032 -48.07901 14109 ft 329 kts 228°
2026-04-28 03:48 -16.07558 -48.09666 14100 ft 327 kts 228°
2026-04-28 03:48 -16.09059 -48.11399 14094 ft 326 kts 228°
2026-04-28 03:48 -16.10577 -48.13152 14089 ft 325 kts 228°
2026-04-28 03:49 -16.12092 -48.14901 14076 ft 325 kts 228°
2026-04-28 03:49 -16.13095 -48.16058 14069 ft 325 kts 228°
2026-04-28 03:49 -16.14612 -48.17810 14064 ft 326 kts 228°
2026-04-28 03:49 -16.16134 -48.19568 14066 ft 327 kts 228°
2026-04-28 03:50 -16.17655 -48.21325 14064 ft 327 kts 228°
2026-04-28 03:50 -16.19187 -48.23095 14066 ft 328 kts 228°
2026-04-28 03:50 -16.20717 -48.24862 14068 ft 329 kts 228°
2026-04-28 03:50 -16.22228 -48.26609 14063 ft 329 kts 228°
2026-04-28 03:51 -16.23766 -48.28387 14058 ft 329 kts 228°
2026-04-28 03:51 -16.25303 -48.30165 14054 ft 329 kts 228°
2026-04-28 03:51 -16.26834 -48.31936 14055 ft 329 kts 228°
2026-04-28 03:51 -16.28367 -48.33709 14057 ft 329 kts 228°
2026-04-28 03:52 -16.29878 -48.35458 14057 ft 329 kts 228°
2026-04-28 03:52 -16.31412 -48.37233 14057 ft 329 kts 228°
2026-04-28 03:52 -16.32941 -48.39004 14055 ft 328 kts 228°
2026-04-28 03:52 -16.34471 -48.40775 14057 ft 328 kts 228°
2026-04-28 03:53 -16.35998 -48.42544 14057 ft 328 kts 228°
2026-04-28 03:53 -16.37507 -48.44294 14060 ft 328 kts 228°
2026-04-28 03:53 -16.39033 -48.46062 14054 ft 328 kts 228°
2026-04-28 03:53 -16.40559 -48.47831 14047 ft 328 kts 228°
2026-04-28 03:54 -16.42086 -48.49602 14052 ft 328 kts 228°
2026-04-28 03:54 -16.43613 -48.51374 14051 ft 328 kts 228°
2026-04-28 03:54 -16.45132 -48.53136 14039 ft 323 kts 228°
2026-04-28 03:54 -16.46622 -48.54866 14039 ft 319 kts 228°
2026-04-28 03:55 -16.48078 -48.56556 14038 ft 316 kts 228°
2026-04-28 03:55 -16.49549 -48.58265 14044 ft 317 kts 228°
2026-04-28 03:55 -16.51025 -48.59978 14051 ft 317 kts 228°
2026-04-28 03:55 -16.52507 -48.61700 13870 ft 322 kts 228°
2026-04-28 03:56 -16.54002 -48.63444 13605 ft 322 kts 230°
2026-04-28 03:56 -16.55184 -48.65426 13186 ft 322 kts 249°
2026-04-28 03:56 -16.55812 -48.67646 12832 ft 318 kts 256°
2026-04-28 03:56 -16.56330 -48.69886 12409 ft 317 kts 257°
2026-04-28 03:57 -16.56822 -48.72094 12013 ft 315 kts 257°
2026-04-28 03:57 -16.57320 -48.74316 11593 ft 314 kts 256°
2026-04-28 03:57 -16.57824 -48.76534 11194 ft 313 kts 256°
2026-04-28 03:57 -16.58332 -48.78740 10787 ft 312 kts 256°
2026-04-28 03:58 -16.58842 -48.80941 10352 ft 312 kts 256°
2026-04-28 03:58 -16.59349 -48.83118 10165 ft 304 kts 256°
2026-04-28 03:58 -16.59844 -48.85240 9948 ft 297 kts 256°
2026-04-28 03:58 -16.60328 -48.87309 9496 ft 298 kts 256°
2026-04-28 03:59 -16.60811 -48.89375 9071 ft 299 kts 256°
2026-04-28 03:59 -16.61310 -48.91503 8611 ft 302 kts 256°
2026-04-28 03:59 -16.61807 -48.93631 8202 ft 301 kts 256°
2026-04-28 03:59 -16.62303 -48.95752 7842 ft 299 kts 256°
2026-04-28 04:00 -16.62790 -48.97837 7476 ft 298 kts 256°
2026-04-28 04:00 -16.63405 -48.99889 7134 ft 294 kts 240°
2026-04-28 04:00 -16.64661 -49.01530 6704 ft 289 kts 217°
2026-04-28 04:00 -16.66303 -49.02647 6423 ft 276 kts 209°
2026-04-28 04:01 -16.67951 -49.03624 6089 ft 268 kts 208°
2026-04-28 04:01 -16.69502 -49.04563 5957 ft 247 kts 215°
2026-04-28 04:01 -16.70535 -49.05909 5790 ft 231 kts 248°
2026-04-28 04:01 -16.70789 -49.07479 5698 ft 210 kts 272°
2026-04-28 04:02 -16.70672 -49.08448 5591 ft 196 kts 284°
2026-04-28 04:02 -16.69234 -49.11375 5167 ft 172 kts 301°
2026-04-28 04:02 -16.68622 -49.12456 4769 ft 173 kts 301°
2026-04-28 04:03 -16.68042 -49.13483 4504 ft 158 kts 302°
2026-04-28 04:03 -16.67487 -49.14464 4116 ft 155 kts 301°
2026-04-28 04:03 -16.66945 -49.15426 3737 ft 153 kts 301°
2026-04-28 04:03 -16.66425 -49.16352 3485 ft 148 kts 301°
2026-04-28 04:04 -16.65897 -49.17291 3264 ft 148 kts 301°
2026-04-28 04:04 -16.65385 -49.18202 3059 ft 148 kts 300°
2026-04-28 04:04 -16.64864 -49.19126 2858 ft 146 kts 301°
2026-04-28 04:04 -16.64354 -49.20034 2671 ft 143 kts 300°
2026-04-28 04:05 -16.63859 -49.20939 2515 ft 143 kts 301°
2026-04-28 04:05 -16.63375 -49.21793 2466 ft 124 kts 300°
2026-04-28 04:05 -16.63040 -49.22391 2460 ft 50 kts 300°
2026-04-28 04:05 -16.62905 -49.22564 2459 ft 8 kts 321°
2026-04-28 04:06 -16.62863 -49.22599 2459 ft 8 kts 326°
2026-04-28 04:06 -16.62819 -49.22629 2458 ft 7 kts 330°
2026-04-28 04:06 -16.62772 -49.22647 2461 ft 7 kts
2026-04-28 04:06 -16.62736 -49.22613 2457 ft 7 kts 71°
2026-04-28 04:07 -16.62752 -49.22565 2458 ft 7 kts 120°
2026-04-28 04:07 -16.62777 -49.22521 2464 ft 7 kts 120°
2026-04-28 04:07 -16.62801 -49.22478 2457 ft 7 kts 120°
2026-04-28 04:07 -16.62825 -49.22436 2459 ft 7 kts 121°
2026-04-28 04:08 -16.62841 -49.22408 2459 ft 7 kts 121°
2026-04-28 04:08 -16.62863 -49.22367 2457 ft 6 kts 120°
2026-04-28 04:08 -16.62885 -49.22327 2458 ft 6 kts 120°
2026-04-28 04:08 -16.62907 -49.22287 2457 ft 6 kts 120°
2026-04-28 04:09 -16.62928 -49.22249 2461 ft 6 kts 120°
2026-04-28 04:09 -16.62930 -49.22245 2458 ft 0 kts 120°